Overview Statistics Trail Chart Weather Telemetry Raw packets
 

This is the latest recevied weather packets stored in our database for station/object WC4PEM-7. If no packets are shown the sender has not sent any weather packets the latest 10 day(s).

<< 134 135 136 137 138 139 140 >>
Time Temp. Humidity Pressure Rain* Wind** Luminosity Snow
1787791586 25° C 88% 1017.2 hPa 0 mm - - -
1787791490 25° C 88% 1017.2 hPa 0 mm - - -
1787791443 25° C 87% 1017.1 hPa 0 mm - - -
1787791190 25° C 87% 1017.1 hPa 0 mm - - -
1787790890 25.56° C 87% 1017.1 hPa 0 mm - - -
1787790675 25° C 87% 1017.2 hPa 0 mm - - -
1787790590 25° C 87% 1017.2 hPa 0 mm - - -
1787790290 25° C 87% 1017.1 hPa 0 mm - - -
1787790113 25° C 86% 1016.9 hPa 0 mm - - -
1787789990 25° C 86% 1016.9 hPa 0 mm - - -
1787789757 25° C 87% 1016.9 hPa 0 mm - - -
1787789690 25° C 87% 1016.9 hPa 0 mm - - -
1787789475 25° C 87% 1016.6 hPa 0 mm - - -
1787789390 25° C 87% 1016.6 hPa 0 mm - - -
1787789090 25° C 87% 1016.4 hPa 0 mm - - -
1787788790 25° C 86% 1016.1 hPa 0 mm - - -
1787788490 25.56° C 85% 1015.9 hPa 0 mm - - -
1787788314 25.56° C 84% 1015.7 hPa 0 mm - - -
1787788190 25.56° C 84% 1015.7 hPa 0 mm - - -
1787787890 25.56° C 83% 1015.5 hPa 0 mm - - -
1787787593 26.11° C 82% 1015.6 hPa 0 mm - - -
1787787290 26.11° C 81% 1015.6 hPa 0 mm - - -
1787786990 26.67° C 81% 1015.6 hPa 0 mm - - -
1787786690 26.67° C 80% 1015.4 hPa 0 mm - - -
1787786390 27.22° C 79% 1015.4 hPa 0 mm - - -

* Rain latest hour (hover to see other rain measurements)
** Current wind speed in m/s (hover to see current wind gust speed)